SCP
0 0 0 0 0 -0 0 0 0 0 1 0 0 0 0 0 1 1 1 1 1 1 1 1 2 1 2 2 1 2 1 1 1 1 2 1 1 1 1 2 2 2 2 1
0 0 -0 0 0 0 -0 0 0 0 1 1 -0 -0 0 0 0 1 1 1 1 1 1 1 2 2 2 2 3 3 3 3 2 2 3 2 1 1 2 2 2 2 2 3
0 -0 0 0 0 0 0 0 0 0 0 0 0 1 1 1 1 1 1 1 1 1 1 1 2 2 1 2 2 3 1 0 0 0 0 1 0 1 1 2 2 2 2 2
0 0 0 0 0 0 0 0 0 0 -0 -0 0 0 1 1 1 1 1 1 1 1 1 0 0 0 0 0 0 0 1 0 0 0 0 0 0 1 1 1 1 1 1 1
0 0 0 0 0 0 0 0 -0 0 1 1 2 2 3 2 2 2 1 1 1 0 0 0 0 0 0 0 0 0 0 0 0 0 0 0 0 0 0 0 0 0 1 1
0 0 0 0 0 -0 0 0 0 1 1 2 4 2 2 3 2 2 1 1 0 0 0 0 0 0 0 0 0 0 0 0 0 0 0 0 0 0 0 0 0 0 0 1
0 0 0 0 0 0 -0 1 1 1 0 2 4 4 3 2 2 1 1 0 0 0 0 0 0 0 0 0 0 0 0 0 0 0 0 0 0 0 0 0 0 0 0 0
0 0 0 0 1 2 3 2 2 1 3 6 6 3 3 2 1 1 0 0 0 0 0 0 0 0 0 0 0 0 0 0 0 0 0 0 0 0 0 0 0 0 0 0
0 0 0 0 0 0 1 1 2 3 4 5 3 3 2 2 1 0 0 0 0 0 0 0 0 0 0 0 0 0 0 0 0 0 0 0 0 0 0 0 0 0 0 0
0 0 0 0 0 0 0 1 1 1 3 3 2 2 1 0 0 0 0 0 0 0 0 0 0 0 0 0 0 0 0 0 0 0 0 0 0 0 0 0 0 0 0 0
0 0 0 0 0 0 1 2 3 4 3 2 1 1 0 0 0 0 0 0 0 0 0 0 0 0 0 0 0 0 0 0 0 0 0 0 0 0 0 0 0 0 0 0
0 0 0 0 0 0 0 0 1 1 0 0 0 0 0 0 0 0 0 0 0 0 0 0 0 0 0 0 0 0 0 0 0 0 0 0 0 0 0 0 0 0 0 0
0 1 1 1 0 0 0 0 0 0 0 0 0 0 0 0 0 0 0 0 0 0 0 0 0 0 0 0 0 0 0 0 0 0 0 0 0 0 0 0 0 0 0 0
0 0 1 1 0 0 0 0 0 0 0 0 0 0 0 0 0 0 0 0 0 0 0 0 0 0 0 0 0 0 0 0 0 0 0 0 0 0 0 0 0 0 0 0
0 0 0 1 0 0 0 0 0 0 0 0 0 0 0 0 0 0 0 0 0 0 0 0 0 0 0 0 0 0 0 0 0 0 0 0 0 0 0 0 0 0 0 0
0 0 1 0 0 0 0 0 0 0 0 0 0 0 0 0 0 0 0 0 0 0 0 0 0 0 0 0 0 0 0 0 0 0 0 0 0 0 0 0 0 0 0 0
0 0 0 1 0 0 0 0 0 0 0 0 0 0 0 0 0 0 0 0 0 0 0 0 0 0 0 0 0 0 0 0 0 0 0 0 0 0 0 0 0 0 0 0
0 0 0 0 0 0 0 0 0 0 0 0 0 0 0 0 0 0 0 0 0 0 0 0 0 0 -0 0 0 0 0 0 0 0 0 0 0 0 0 0 0 0 0 0
0 0 0 0 0 1 0 0 0 0 0 0 0 0 0 0 0 0 0 0 0 0 0 0 0 0 0 0 0 0 0 0 0 0 0 0 0 0 0 0 0 0 0 0
0 0 0 0 0 0 0 0 0 0 0 0 0 0 0 0 0 0 0 0 0 0 0 -0 0 0 0 0 0 0 0 0 0 0 0 0 0 0 0 0 0 0 0 0
0 0 0 0 0 0 0 0 0 0 0 0 0 0 0 0 0 0 0 0 0 0 0 -0 0 0 0 0 0 -0 0 0 0 0 0 0 0 0 0 0 0 0 0 0
0 0 0 0 0 0 0 0 0 0 0 0 0 0 0 0 0 0 0 0 0 0 0 0 0 0 0 0 0 -0 0 0 0 0 0 0 0 0 0 0 0 0 0 0
0 0 0 0 0 0 0 0 0 0 0 0 0 0 0 0 0 0 0 0 0 0 0 0 0 0 0 0 -0 0 0 -0 0 0 0 0 0 0 0 0 0 0 0 0
0 0 0 0 0 0 -0 0 0 0 0 0 0 0 0 0 0 0 0 0 0 0 0 0 0 0 0 0 0 -0 0 0 0 -0 0 0 0 0 0 0 0 0 0 0
0 0 0 0 -0 -0 0 0 0 -0 0 0 0 0 0 0 0 0 0 0 0 0 0 0 0 0 0 0 0 0 0 0 0 0 0 0 0 0 0 0 0 0 -0 -0
0 0 0 0 0 -0 0 0 0 0 0 0 0 0 0 0 0 0 0 0 0 0 0 0 0 -0 0 -0 0 0 -0 0 0 0 0 0 0 0 0 0 -0 0 0 0
0 -0 0 -0 0 0 0 0 0 -0 0 -0 0 0 -0 0 0 0 0 0 0 0 0 0 0 0 0 0 -0 0 -0 0 0 0 0 0 0 0 0 -0 -0 -0 -0 0
Wind_Speed_500mb
39 40 16 26 12 47 33 23 28 27 26 33 14 13 15 31 31 31 29 29 31 35 32 29 31 33 33 29 29 32 31 27 18 21 20 13 21 25 23 25 26 23 25 22
36 40 39 26 31 29 30 23 23 33 27 25 73 31 31 33 36 33 33 31 30 32 37 41 36 30 34 36 31 30 29 30 29 25 24 23 11 6 7 1 5 9 12 16
33 36 33 34 37 29 31 27 27 10 30 31 29 31 39 41 42 40 36 35 33 34 35 34 33 24 24 25 25 20 18 16 9 16 22 17 42 16 20 18 20 21 20 22
25 27 32 37 10 10 47 37 16 44 49 49 59 47 41 38 42 44 39 35 32 30 26 24 25 21 16 12 9 10 9 8 7 6 26 18 37 33 34 39 40 43 43 41
21 29 39 46 32 8 10 17 60 11 33 48 40 46 35 33 33 39 39 31 27 24 25 22 16 14 9 5 1 6 4 14 17 19 21 28 36 39 45 52 53 56 56 57
27 34 41 27 21 44 34 31 27 6 7 45 50 21 19 37 33 36 32 27 24 22 19 14 11 7 4 1 4 7 12 18 27 33 38 44 47 49 52 53 57 60 61 59
30 35 32 38 17 5 18 2 27 7 22 50 21 5 58 42 37 30 26 21 17 13 10 8 2 3 6 9 13 22 29 36 40 43 46 47 47 52 57 62 65 69 72 72
22 34 33 40 16 12 15 12 13 13 33 48 45 49 45 38 33 28 23 16 11 7 4 1 5 10 12 15 20 29 34 39 42 46 48 51 56 61 63 65 65 66 65 65
20 2 8 22 18 20 19 10 7 10 27 43 38 39 42 35 28 23 17 10 4 3 4 6 9 12 15 20 28 29 34 40 43 48 52 53 53 55 55 54 55 56 55 56
12 6 18 15 16 12 13 10 7 14 35 35 36 37 31 26 22 17 8 1 5 7 8 12 15 19 21 26 30 36 39 41 44 46 45 47 50 50 52 52 54 55 53 50
14 18 27 11 13 3 8 10 15 20 22 28 38 31 25 18 10 4 3 6 8 12 16 19 22 24 27 31 36 40 43 46 45 45 45 54 53 52 58 64 54 57 54 56
14 13 10 9 15 12 15 16 18 25 29 24 24 21 14 11 6 3 5 10 13 15 18 21 26 29 32 34 34 39 39 42 46 49 51 54 56 60 60 57 55 60 74 60
30 14 9 13 21 19 23 22 19 20 19 19 18 15 9 5 4 5 7 11 14 19 22 24 25 29 31 34 37 47 52 50 51 53 55 58 58 63 66 63 61 57 58 56
9 8 18 29 26 24 27 25 25 22 17 15 14 11 7 3 2 5 9 13 15 19 23 23 27 35 40 42 40 45 50 53 49 44 49 52 54 55 61 63 61 62 53 51
11 9 23 34 35 32 28 22 22 21 17 14 10 8 5 1 2 4 9 13 18 17 20 28 32 34 33 34 38 41 43 46 44 47 50 54 60 57 54 56 58 60 63 55
3 18 35 43 42 36 30 24 22 17 12 10 8 5 2 2 2 3 9 15 22 25 29 30 39 40 39 40 40 43 47 51 46 49 50 50 51 49 51 52 59 61 57 68
17 24 41 38 39 36 31 24 14 16 12 9 8 5 4 3 4 4 12 16 23 21 21 22 35 38 34 35 36 40 52 49 45 45 47 47 45 44 47 52 62 63 63 62
26 39 47 45 39 35 25 18 12 11 9 9 8 6 6 5 6 9 17 19 22 22 21 33 35 43 33 39 45 61 47 45 45 44 44 45 45 49 54 54 55 58 62 62
21 31 16 25 41 35 22 17 12 10 8 7 6 7 4 12 14 18 22 27 31 25 24 41 36 39 31 40 52 74 46 50 47 46 41 41 46 49 50 55 57 60 65 68
16 31 25 38 12 34 16 9 8 6 4 7 8 8 11 19 19 23 27 25 34 30 24 34 40 42 43 40 56 55 45 51 46 43 42 39 42 51 51 49 50 52 59 60
30 38 34 24 18 25 18 4 2 4 5 7 9 13 21 24 22 26 34 35 26 27 27 36 40 40 44 43 56 42 42 50 42 43 40 42 49 50 53 54 56 58 54 54
19 23 26 19 14 3 8 1 8 8 6 7 10 12 17 21 24 28 33 34 26 29 26 39 44 39 52 51 43 35 46 38 35 35 39 43 45 59 57 54 52 51 49 49
19 13 9 6 9 8 13 15 13 13 10 9 14 19 19 22 22 25 26 33 30 34 47 43 42 43 50 42 29 33 40 36 38 35 33 47 50 53 50 47 44 44 43 43
12 13 9 15 11 28 19 14 13 17 18 20 20 26 27 28 26 28 30 35 34 44 43 42 35 44 44 38 34 33 44 43 30 32 27 40 48 53 44 39 34 32 35 38
15 18 20 20 18 18 16 12 14 18 14 16 25 24 34 34 32 31 28 36 35 38 40 38 40 40 38 32 33 31 40 42 30 29 29 34 47 51 39 32 28 26 28 34
18 17 16 14 15 16 14 14 11 11 11 14 17 18 20 18 21 26 33 29 33 32 41 33 39 38 28 36 32 29 25 31 21 22 31 40 42 35 30 27 26 25 23 24
11 17 13 15 15 6 3 6 9 16 10 13 18 16 15 15 18 24 29 32 40 50 51 40 38 38 32 32 41 20 26 14 10 32 35 31 35 37 35 31 30 28 23 19
Wind_Direction_500mb
287 290 277 275 209 272 238 267 289 123 128 115 333 320 155 142 131 125 103 89 84 83 88 90 92 94 91 107 123 149 160 145 119 153 169 187 208 229 232 241 244 237 243 245
274 287 292 271 268 274 270 286 291 126 130 160 181 170 157 146 142 134 121 114 108 102 95 94 96 94 104 103 103 103 81 74 77 82 65 34 16 34 327 281 259 258 258 258
254 269 272 266 269 268 262 272 285 301 162 170 187 167 155 154 145 137 133 128 124 118 114 109 104 105 107 106 94 88 89 99 73 7 333 30 309 328 318 326 315 308 304 304
276 297 271 278 71 18 328 322 325 118 150 175 165 153 154 155 146 139 139 137 136 131 128 132 134 127 123 120 119 107 87 31 328 276 250 233 289 305 309 305 305 305 302 298
256 254 267 278 301 19 144 290 286 246 124 135 128 134 132 138 142 138 138 143 139 137 132 132 124 128 114 76 315 258 244 265 274 292 291 281 288 301 300 298 299 299 298 298
272 265 266 292 55 342 324 311 340 85 149 142 142 155 138 136 144 138 138 143 144 147 142 126 118 119 122 96 263 294 284 288 293 302 306 307 309 306 302 300 299 298 295 293
250 244 255 332 34 12 220 289 345 83 248 135 127 41 139 149 140 143 145 147 149 146 141 136 106 284 322 303 298 288 292 299 303 306 305 306 306 302 301 299 295 293 293 293
303 257 226 10 0 13 355 348 2 359 104 103 105 119 132 145 147 151 151 148 144 150 151 328 315 317 309 306 292 293 298 301 303 305 305 303 302 301 301 302 301 300 299 300
244 75 136 34 22 360 339 345 10 95 114 120 122 135 143 142 148 154 157 150 175 237 274 293 301 311 307 300 304 306 304 306 305 305 306 308 309 309 305 301 295 294 293 294
289 15 61 32 10 339 323 320 166 146 125 131 135 138 137 143 152 155 142 194 276 293 303 312 307 306 309 309 306 303 305 307 307 309 316 315 312 305 299 296 294 294 294 295
332 311 286 273 302 357 33 91 90 103 130 128 129 131 144 136 120 138 231 279 302 318 318 312 310 305 304 304 307 308 308 313 320 316 308 304 307 298 291 281 284 296 294 293
307 310 316 40 124 127 121 110 111 107 100 107 121 117 107 122 151 219 269 310 320 311 306 303 305 308 310 297 295 298 300 306 302 305 307 306 306 306 305 295 290 291 279 283
296 65 71 149 153 152 145 141 134 128 121 112 107 122 140 156 194 300 331 312 315 314 313 306 303 292 287 301 295 294 301 303 301 298 304 307 303 307 308 305 303 302 310 284
254 95 134 144 162 159 149 138 134 128 128 132 142 142 147 161 301 329 336 331 325 313 318 319 302 300 291 290 296 302 304 303 305 301 294 298 296 303 304 301 302 305 303 307
157 257 252 168 154 139 139 154 153 155 151 148 145 145 136 124 18 28 5 356 351 346 320 323 329 329 325 315 310 310 313 311 307 306 305 298 297 290 300 298 297 298 302 299
200 254 162 151 149 156 164 174 182 165 169 167 168 157 162 142 108 32 4 347 357 344 344 338 343 330 326 317 311 312 312 321 317 312 312 311 310 293 284 288 294 300 297 296
261 166 148 156 156 166 182 186 176 156 171 191 179 194 209 242 287 323 339 338 339 336 334 338 334 338 345 345 332 319 312 317 324 317 317 317 311 305 301 296 296 299 297 300
241 189 163 172 157 167 136 135 151 165 178 174 180 198 224 280 288 316 323 314 326 324 314 328 335 346 351 338 337 341 326 322 317 318 310 311 310 306 305 304 304 306 306 303
148 140 165 173 152 130 147 153 170 170 172 196 210 223 250 267 313 313 309 313 312 311 304 316 319 338 333 330 330 338 322 330 324 321 316 313 312 313 310 307 304 302 301 301
66 141 181 110 73 112 129 132 160 171 208 223 236 258 266 290 299 304 312 303 304 287 290 329 316 325 334 319 320 335 320 328 327 331 326 320 314 313 314 315 312 312 314 314
164 106 77 91 84 84 74 73 313 248 232 249 264 275 290 295 308 303 299 299 323 320 322 330 324 319 314 313 324 327 324 319 323 323 322 326 320 327 325 323 320 318 318 315
108 109 152 190 228 186 139 34 239 239 252 288 303 297 298 305 312 309 301 321 313 314 321 321 318 310 313 313 315 315 328 335 332 328 333 326 327 324 325 322 324 322 321 322
119 120 100 71 122 103 227 196 235 229 251 274 287 287 281 291 291 293 303 316 317 308 321 325 312 307 320 309 309 290 335 344 346 354 338 337 338 333 328 329 326 328 325 324
240 201 304 275 251 236 231 208 242 240 257 262 263 272 281 288 295 318 303 314 315 317 323 320 319 318 324 306 308 287 299 329 333 345 320 328 342 344 336 336 342 353 359 353
231 209 203 212 220 235 228 220 252 263 275 282 283 296 286 295 279 309 311 310 315 315 311 310 312 308 319 305 323 312 282 296 311 314 317 317 328 340 336 336 347 355 359 12
197 203 218 216 226 232 203 219 254 290 292 301 318 332 320 311 316 320 320 316 307 304 307 307 308 313 310 302 313 315 318 305 323 336 320 323 327 332 338 342 344 353 356 5
192 204 200 211 196 199 170 211 265 299 278 298 328 313 296 324 335 341 333 328 314 323 317 293 289 301 304 299 310 306 326 303 307 350 12 24 24 27 17 17 11 3 359 0
Wind_Speed_850mb
39 40 16 26 12 47 33 23 28 27 26 33 14 13 15 31 31 31 29 29 31 35 32 29 31 33 33 29 29 32 31 27 18 21 20 13 21 25 23 25 26 23 25 22
36 40 39 26 31 29 30 23 23 33 27 25 73 31 31 33 36 33 33 31 30 32 37 41 36 30 34 36 31 30 29 30 29 25 24 23 11 6 7 1 5 9 12 16
33 36 33 34 37 29 31 27 27 10 30 31 29 31 39 41 42 40 36 35 33 34 35 34 33 24 24 25 25 20 18 16 9 16 22 17 42 16 20 18 20 21 20 22
25 27 32 37 10 10 47 37 16 44 49 49 59 47 41 38 42 44 39 35 32 30 26 24 25 21 16 12 9 10 9 8 7 6 26 18 37 33 34 39 40 43 43 41
21 29 39 46 32 8 10 17 60 11 33 48 40 46 35 33 33 39 39 31 27 24 25 22 16 14 9 5 1 6 4 14 17 19 21 28 36 39 45 52 53 56 56 57
27 34 41 27 21 44 34 31 27 6 7 45 50 21 19 37 33 36 32 27 24 22 19 14 11 7 4 1 4 7 12 18 27 33 38 44 47 49 52 53 57 60 61 59
30 35 32 38 17 5 18 2 27 7 22 50 21 5 58 42 37 30 26 21 17 13 10 8 2 3 6 9 13 22 29 36 40 43 46 47 47 52 57 62 65 69 72 72
22 34 33 40 16 12 15 12 13 13 33 48 45 49 45 38 33 28 23 16 11 7 4 1 5 10 12 15 20 29 34 39 42 46 48 51 56 61 63 65 65 66 65 65
20 2 8 22 18 20 19 10 7 10 27 43 38 39 42 35 28 23 17 10 4 3 4 6 9 12 15 20 28 29 34 40 43 48 52 53 53 55 55 54 55 56 55 56
12 6 18 15 16 12 13 10 7 14 35 35 36 37 31 26 22 17 8 1 5 7 8 12 15 19 21 26 30 36 39 41 44 46 45 47 50 50 52 52 54 55 53 50
14 18 27 11 13 3 8 10 15 20 22 28 38 31 25 18 10 4 3 6 8 12 16 19 22 24 27 31 36 40 43 46 45 45 45 54 53 52 58 64 54 57 54 56
14 13 10 9 15 12 15 16 18 25 29 24 24 21 14 11 6 3 5 10 13 15 18 21 26 29 32 34 34 39 39 42 46 49 51 54 56 60 60 57 55 60 74 60
30 14 9 13 21 19 23 22 19 20 19 19 18 15 9 5 4 5 7 11 14 19 22 24 25 29 31 34 37 47 52 50 51 53 55 58 58 63 66 63 61 57 58 56
9 8 18 29 26 24 27 25 25 22 17 15 14 11 7 3 2 5 9 13 15 19 23 23 27 35 40 42 40 45 50 53 49 44 49 52 54 55 61 63 61 62 53 51
11 9 23 34 35 32 28 22 22 21 17 14 10 8 5 1 2 4 9 13 18 17 20 28 32 34 33 34 38 41 43 46 44 47 50 54 60 57 54 56 58 60 63 55
3 18 35 43 42 36 30 24 22 17 12 10 8 5 2 2 2 3 9 15 22 25 29 30 39 40 39 40 40 43 47 51 46 49 50 50 51 49 51 52 59 61 57 68
17 24 41 38 39 36 31 24 14 16 12 9 8 5 4 3 4 4 12 16 23 21 21 22 35 38 34 35 36 40 52 49 45 45 47 47 45 44 47 52 62 63 63 62
26 39 47 45 39 35 25 18 12 11 9 9 8 6 6 5 6 9 17 19 22 22 21 33 35 43 33 39 45 61 47 45 45 44 44 45 45 49 54 54 55 58 62 62
21 31 16 25 41 35 22 17 12 10 8 7 6 7 4 12 14 18 22 27 31 25 24 41 36 39 31 40 52 74 46 50 47 46 41 41 46 49 50 55 57 60 65 68
16 31 25 38 12 34 16 9 8 6 4 7 8 8 11 19 19 23 27 25 34 30 24 34 40 42 43 40 56 55 45 51 46 43 42 39 42 51 51 49 50 52 59 60
30 38 34 24 18 25 18 4 2 4 5 7 9 13 21 24 22 26 34 35 26 27 27 36 40 40 44 43 56 42 42 50 42 43 40 42 49 50 53 54 56 58 54 54
19 23 26 19 14 3 8 1 8 8 6 7 10 12 17 21 24 28 33 34 26 29 26 39 44 39 52 51 43 35 46 38 35 35 39 43 45 59 57 54 52 51 49 49
19 13 9 6 9 8 13 15 13 13 10 9 14 19 19 22 22 25 26 33 30 34 47 43 42 43 50 42 29 33 40 36 38 35 33 47 50 53 50 47 44 44 43 43
12 13 9 15 11 28 19 14 13 17 18 20 20 26 27 28 26 28 30 35 34 44 43 42 35 44 44 38 34 33 44 43 30 32 27 40 48 53 44 39 34 32 35 38
15 18 20 20 18 18 16 12 14 18 14 16 25 24 34 34 32 31 28 36 35 38 40 38 40 40 38 32 33 31 40 42 30 29 29 34 47 51 39 32 28 26 28 34
18 17 16 14 15 16 14 14 11 11 11 14 17 18 20 18 21 26 33 29 33 32 41 33 39 38 28 36 32 29 25 31 21 22 31 40 42 35 30 27 26 25 23 24
11 17 13 15 15 6 3 6 9 16 10 13 18 16 15 15 18 24 29 32 40 50 51 40 38 38 32 32 41 20 26 14 10 32 35 31 35 37 35 31 30 28 23 19
Wind_Direction_850mb
287 290 277 275 209 272 238 267 289 123 128 115 333 320 155 142 131 125 103 89 84 83 88 90 92 94 91 107 123 149 160 145 119 153 169 187 208 229 232 241 244 237 243 245
274 287 292 271 268 274 270 286 291 126 130 160 181 170 157 146 142 134 121 114 108 102 95 94 96 94 104 103 103 103 81 74 77 82 65 34 16 34 327 281 259 258 258 258
254 269 272 266 269 268 262 272 285 301 162 170 187 167 155 154 145 137 133 128 124 118 114 109 104 105 107 106 94 88 89 99 73 7 333 30 309 328 318 326 315 308 304 304
276 297 271 278 71 18 328 322 325 118 150 175 165 153 154 155 146 139 139 137 136 131 128 132 134 127 123 120 119 107 87 31 328 276 250 233 289 305 309 305 305 305 302 298
256 254 267 278 301 19 144 290 286 246 124 135 128 134 132 138 142 138 138 143 139 137 132 132 124 128 114 76 315 258 244 265 274 292 291 281 288 301 300 298 299 299 298 298
272 265 266 292 55 342 324 311 340 85 149 142 142 155 138 136 144 138 138 143 144 147 142 126 118 119 122 96 263 294 284 288 293 302 306 307 309 306 302 300 299 298 295 293
250 244 255 332 34 12 220 289 345 83 248 135 127 41 139 149 140 143 145 147 149 146 141 136 106 284 322 303 298 288 292 299 303 306 305 306 306 302 301 299 295 293 293 293
303 257 226 10 0 13 355 348 2 359 104 103 105 119 132 145 147 151 151 148 144 150 151 328 315 317 309 306 292 293 298 301 303 305 305 303 302 301 301 302 301 300 299 300
244 75 136 34 22 360 339 345 10 95 114 120 122 135 143 142 148 154 157 150 175 237 274 293 301 311 307 300 304 306 304 306 305 305 306 308 309 309 305 301 295 294 293 294
289 15 61 32 10 339 323 320 166 146 125 131 135 138 137 143 152 155 142 194 276 293 303 312 307 306 309 309 306 303 305 307 307 309 316 315 312 305 299 296 294 294 294 295
332 311 286 273 302 357 33 91 90 103 130 128 129 131 144 136 120 138 231 279 302 318 318 312 310 305 304 304 307 308 308 313 320 316 308 304 307 298 291 281 284 296 294 293
307 310 316 40 124 127 121 110 111 107 100 107 121 117 107 122 151 219 269 310 320 311 306 303 305 308 310 297 295 298 300 306 302 305 307 306 306 306 305 295 290 291 279 283
296 65 71 149 153 152 145 141 134 128 121 112 107 122 140 156 194 300 331 312 315 314 313 306 303 292 287 301 295 294 301 303 301 298 304 307 303 307 308 305 303 302 310 284
254 95 134 144 162 159 149 138 134 128 128 132 142 142 147 161 301 329 336 331 325 313 318 319 302 300 291 290 296 302 304 303 305 301 294 298 296 303 304 301 302 305 303 307
157 257 252 168 154 139 139 154 153 155 151 148 145 145 136 124 18 28 5 356 351 346 320 323 329 329 325 315 310 310 313 311 307 306 305 298 297 290 300 298 297 298 302 299
200 254 162 151 149 156 164 174 182 165 169 167 168 157 162 142 108 32 4 347 357 344 344 338 343 330 326 317 311 312 312 321 317 312 312 311 310 293 284 288 294 300 297 296
261 166 148 156 156 166 182 186 176 156 171 191 179 194 209 242 287 323 339 338 339 336 334 338 334 338 345 345 332 319 312 317 324 317 317 317 311 305 301 296 296 299 297 300
241 189 163 172 157 167 136 135 151 165 178 174 180 198 224 280 288 316 323 314 326 324 314 328 335 346 351 338 337 341 326 322 317 318 310 311 310 306 305 304 304 306 306 303
148 140 165 173 152 130 147 153 170 170 172 196 210 223 250 267 313 313 309 313 312 311 304 316 319 338 333 330 330 338 322 330 324 321 316 313 312 313 310 307 304 302 301 301
66 141 181 110 73 112 129 132 160 171 208 223 236 258 266 290 299 304 312 303 304 287 290 329 316 325 334 319 320 335 320 328 327 331 326 320 314 313 314 315 312 312 314 314
164 106 77 91 84 84 74 73 313 248 232 249 264 275 290 295 308 303 299 299 323 320 322 330 324 319 314 313 324 327 324 319 323 323 322 326 320 327 325 323 320 318 318 315
108 109 152 190 228 186 139 34 239 239 252 288 303 297 298 305 312 309 301 321 313 314 321 321 318 310 313 313 315 315 328 335 332 328 333 326 327 324 325 322 324 322 321 322
119 120 100 71 122 103 227 196 235 229 251 274 287 287 281 291 291 293 303 316 317 308 321 325 312 307 320 309 309 290 335 344 346 354 338 337 338 333 328 329 326 328 325 324
240 201 304 275 251 236 231 208 242 240 257 262 263 272 281 288 295 318 303 314 315 317 323 320 319 318 324 306 308 287 299 329 333 345 320 328 342 344 336 336 342 353 359 353
231 209 203 212 220 235 228 220 252 263 275 282 283 296 286 295 279 309 311 310 315 315 311 310 312 308 319 305 323 312 282 296 311 314 317 317 328 340 336 336 347 355 359 12
197 203 218 216 226 232 203 219 254 290 292 301 318 332 320 311 316 320 320 316 307 304 307 307 308 313 310 302 313 315 318 305 323 336 320 323 327 332 338 342 344 353 356 5
192 204 200 211 196 199 170 211 265 299 278 298 328 313 296 324 335 341 333 328 314 323 317 293 289 301 304 299 310 306 326 303 307 350 12 24 24 27 17 17 11 3 359 0